Tracking 31032 objects as of 14-Jul-2025
HD Live streaming from Space Station
objects crossing your sky now

STARLINK-32508

Track STARLINK-32508 now!
10-day predictions
STARLINK-32508 is classified as:


NORAD ID: 62158
Int'l Code: 2024-224V
Perigee: 489.4 km
Apogee: 490.9 km
Inclination: 43.0 °
Period: 94.3 minutes
Semi major axis: 6861 km
RCS: Unknown
Launch date: November 30, 2024
Source: (USA)
Launch site: AIR FORCE EASTERN TEST RANGE (AFETR)
Your satellite tracking list
Your tracking list is empty




NASA's NSSDC Master Catalog

Two Line Element Set (TLE):
1 62158U 24224V   25194.92299994  .00016593  00000-0  61089-3 0  9991
2 62158  42.9989  66.5389 0001143 283.7269  76.3456 15.27593040 35968
Source of the keplerian elements: AFSPC